| time (UTC) | temp F | wind direction | speed knots | gust knots | rain 1hr in | rain 24hr in | rain mn in | humidity % | barometer mb |
| 20260508132725 | 55 | 0 | 9.6 | 13.9 | 0.00 | 0.40 | 0.00 | 57 | 1001.1 |
| 20260508132215 | 55 | 0 | 7.0 | 12.2 | 0.00 | 0.40 | 0.00 | 59 | 1001.0 |
| 20260508131722 | 55 | 0 | 6.1 | 12.2 | 0.00 | 0.40 | 0.00 | 61 | 1001.1 |
| 20260508131216 | 54 | 0 | 7.0 | 12.2 | 0.00 | 0.40 | 0.00 | 61 | 1001.1 |
| 20260508130959 | 55 | 0 | 6.1 | 12.2 | 0.00 | 0.40 | 0.00 | 63 | 1001.1 |
| 20260508130213 | 55 | 0 | 1.7 | 5.2 | 0.00 | 0.40 | 0.00 | 69 | 1001.0 |
| 20260508125944 | 54 | 0 | 1.7 | 5.2 | 0.00 | 0.40 | 0.00 | 71 | 1001.1 |
| 20260508125718 | 54 | 0 | 1.7 | 5.2 | 0.00 | 0.40 | 0.00 | 71 | 1001.1 |
| 20260508125214 | 53 | 0 | 2.6 | 6.1 | 0.00 | 0.40 | 0.00 | 72 | 1001.0 |
| 20260508124714 | 52 | 0 | 4.3 | 6.1 | 0.00 | 0.40 | 0.00 | 72 | 1001.1 |
| 20260508124215 | 52 | 0 | 0.0 | 3.5 | 0.00 | 0.40 | 0.00 | 75 | 1001.1 |
| 20260508123712 | 51 | 0 | 0.9 | 3.5 | 0.00 | 0.40 | 0.00 | 76 | 1001.2 |
| 20260508123208 | 51 | 0 | 0.9 | 3.5 | 0.00 | 0.40 | 0.00 | 76 | 1001.1 |
| 20260508122954 | 51 | 0 | 0.0 | 4.3 | 0.00 | 0.40 | 0.00 | 78 | 1001.2 |
| 20260508122453 | 50 | 0 | 0.9 | 5.2 | 0.00 | 0.40 | 0.00 | 79 | 1001.2 |
| 20260508121707 | 49 | 0 | 2.6 | 5.2 | 0.00 | 0.40 | 0.00 | 80 | 1001.3 |
| 20260508121452 | 49 | 0 | 0.0 | 2.6 | 0.00 | 0.40 | 0.00 | 82 | 1001.4 |
| 20260508120952 | 48 | 0 | 0.0 | 5.2 | 0.00 | 0.40 | 0.00 | 83 | 1001.3 |
| 20260508120446 | 48 | 0 | 2.6 | 5.2 | 0.00 | 0.40 | 0.00 | 83 | 1001.3 |
| 20260508115703 | 47 | 0 | 2.6 | 4.3 | 0.00 | 0.40 | 0.00 | 84 | 1001.3 |
| 20260508115452 | 47 | 0 | 2.6 | 4.3 | 0.00 | 0.40 | 0.00 | 85 | 1001.3 |
| 20260508114703 | 47 | 0 | 2.6 | 4.3 | 0.00 | 0.40 | 0.00 | 86 | 1001.4 |
| 20260508114204 | 46 | 0 | 1.7 | 4.3 | 0.00 | 0.40 | 0.00 | 87 | 1001.5 |
| 20260508113702 | 46 | 0 | 2.6 | 4.3 | 0.00 | 0.40 | 0.00 | 87 | 1001.5 |
| 20260508113205 | 46 | 0 | 2.6 | 5.2 | 0.00 | 0.40 | 0.00 | 87 | 1001.6 |
| 20260508112702 | 46 | 0 | 3.5 | 5.2 | 0.00 | 0.40 | 0.00 | 88 | 1001.5 |
| 20260508112202 | 45 | 0 | 3.5 | 5.2 | 0.00 | 0.40 | 0.00 | 88 | 1001.5 |
| 20260508111702 | 45 | 0 | 3.5 | 5.2 | 0.00 | 0.40 | 0.00 | 89 | 1001.6 |
| 20260508111200 | 45 | 0 | 3.5 | 7.8 | 0.00 | 0.40 | 0.00 | 89 | 1001.5 |
| 20260508110944 | 45 | 0 | 4.3 | 8.7 | 0.00 | 0.40 | 0.00 | 89 | 1001.5 |
| 20260508110451 | 45 | 0 | 4.3 | 8.7 | 0.00 | 0.40 | 0.00 | 89 | 1001.5 |
| 20260508105659 | 45 | 0 | 2.6 | 7.8 | 0.00 | 0.41 | 0.00 | 90 | 1001.4 |
| 20260508105200 | 44 | 0 | 4.3 | 7.8 | 0.00 | 0.41 | 0.00 | 90 | 1001.4 |
| 20260508104941 | 44 | 0 | 4.3 | 7.8 | 0.00 | 0.41 | 0.00 | 90 | 1001.3 |
| 20260508104448 | 44 | 0 | 4.3 | 8.7 | 0.00 | 0.41 | 0.00 | 91 | 1001.2 |
| 20260508103658 | 44 | 0 | 4.3 | 8.7 | 0.00 | 0.41 | 0.00 | 91 | 1001.2 |
| 20260508103449 | 44 | 0 | 6.1 | 9.6 | 0.00 | 0.41 | 0.00 | 91 | 1001.2 |
| 20260508102658 | 44 | 0 | 5.2 | 9.6 | 0.00 | 0.41 | 0.00 | 92 | 1001.2 |
| 20260508102159 | 44 | 0 | 4.3 | 9.6 | 0.00 | 0.41 | 0.00 | 92 | 1001.0 |
| 20260508101658 | 43 | 0 | 4.3 | 7.8 | 0.00 | 0.41 | 0.00 | 92 | 1000.9 |
| 20260508101158 | 43 | 0 | 5.2 | 7.8 | 0.00 | 0.41 | 0.00 | 92 | 1000.9 |
| 20260508100657 | 43 | 0 | 4.3 | 6.1 | 0.00 | 0.41 | 0.00 | 92 | 1000.8 |
| 20260508100158 | 43 | 0 | 4.3 | 9.6 | 0.00 | 0.41 | 0.00 | 92 | 1000.8 |
| 20260508095656 | 43 | 0 | 5.2 | 9.6 | 0.00 | 0.41 | 0.00 | 92 | 1000.8 |
| 20260508095158 | 42 | 0 | 4.3 | 7.8 | 0.00 | 0.41 | 0.00 | 92 | 1000.7 |
| 20260508094815 | 42 | 0 | 3.5 | 5.2 | 0.00 | 0.42 | 0.00 | 92 | 1000.5 |
| 20260508094753 | 42 | 0 | 2.6 | 5.2 | 0.00 | 0.42 | 0.00 | 92 | 1000.7 |
| 20260508094221 | 42 | 0 | 3.5 | 5.2 | 0.00 | 0.42 | 0.00 | 92 | 1000.6 |
| 20260508093215 | 43 | 0 | 2.6 | 5.2 | 0.00 | 0.42 | 0.00 | 91 | 1000.3 |
| 20260508093209 | 42 | 0 | 2.6 | 5.2 | 0.00 | 0.42 | 0.00 | 92 | 1000.5 |
| 20260508093200 | 42 | 0 | 2.6 | 5.2 | 0.00 | 0.42 | 0.00 | 92 | 1000.5 |
| 20260508092620 | 43 | 0 | 2.6 | 5.2 | 0.00 | 0.42 | 0.00 | 92 | 1000.4 |
| 20260508092312 | 42 | 0 | 2.6 | 4.3 | 0.00 | 0.42 | 0.00 | 92 | 1000.4 |
| 20260508090941 | 43 | 0 | 3.5 | 7.8 | 0.00 | 0.43 | 0.00 | 92 | 1000.2 |
| 20260508090156 | 43 | 0 | 4.3 | 7.8 | 0.00 | 0.43 | 0.00 | 91 | 1000.3 |
| 20260508085656 | 43 | 0 | 5.2 | 8.7 | 0.00 | 0.43 | 0.00 | 91 | 1000.2 |
| 20260508085156 | 43 | 0 | 5.2 | 9.6 | 0.00 | 0.45 | 0.00 | 91 | 1000.1 |
| 20260508084940 | 43 | 0 | 5.2 | 11.3 | 0.00 | 0.45 | 0.00 | 91 | 1000.1 |
| 20260508084155 | 43 | 0 | 7.0 | 11.3 | 0.00 | 0.46 | 0.00 | 91 | 1000.1 |
| 20260508083656 | 43 | 0 | 5.2 | 10.4 | 0.00 | 0.46 | 0.00 | 91 | 1000.2 |
| 20260508083156 | 43 | 0 | 5.2 | 10.4 | 0.00 | 0.47 | 0.00 | 91 | 1000.4 |
| 20260508082654 | 43 | 0 | 6.1 | 8.7 | 0.00 | 0.48 | 0.00 | 91 | 1000.4 |
| 20260508082442 | 43 | 0 | 6.1 | 8.7 | 0.00 | 0.48 | 0.00 | 91 | 1000.4 |
| 20260508081654 | 43 | 0 | 5.2 | 8.7 | 0.00 | 0.48 | 0.00 | 91 | 1000.5 |
| 20260508081154 | 43 | 0 | 6.1 | 8.7 | 0.00 | 0.48 | 0.00 | 91 | 1000.4 |
| 20260508080655 | 43 | 0 | 5.2 | 8.7 | 0.00 | 0.48 | 0.00 | 91 | 1000.5 |
| 20260508080154 | 43 | 0 | 5.2 | 8.7 | 0.00 | 0.49 | 0.00 | 91 | 1000.4 |
| 20260508075937 | 43 | 0 | 4.3 | 7.8 | 0.00 | 0.49 | 0.00 | 91 | 1000.3 |
| 20260508075533 | 43 | 0 | 5.2 | 7.8 | 0.00 | 0.50 | 0.00 | 91 | 1000.1 |
| 20260508075229 | 43 | 0 | 4.3 | 7.8 | 0.00 | 0.50 | 0.00 | 91 | 1000.1 |
| 20260508074154 | 43 | 0 | 4.3 | 7.8 | 0.00 | 0.51 | 0.00 | 91 | 1000.2 |
| 20260508073653 | 44 | 0 | 3.5 | 6.1 | 0.00 | 0.52 | 0.00 | 91 | 1000.2 |
| 20260508073154 | 44 | 0 | 4.3 | 7.8 | 0.00 | 0.54 | 0.00 | 91 | 1000.3 |
| 20260508072654 | 44 | 0 | 4.3 | 8.7 | 0.00 | 0.55 | 0.00 | 91 | 1000.3 |
| 20260508072153 | 43 | 0 | 5.2 | 8.7 | 0.00 | 0.56 | 0.00 | 91 | 1000.2 |
| 20260508071944 | 44 | 0 | 3.5 | 7.8 | 0.00 | 0.56 | 0.00 | 90 | 1000.2 |
| 20260508071153 | 44 | 0 | 2.6 | 5.2 | 0.00 | 0.56 | 0.00 | 90 | 1000.3 |
| 20260508070653 | 44 | 0 | 2.6 | 5.2 | 0.00 | 0.57 | 0.00 | 90 | 1000.4 |
| 20260508070153 | 44 | 0 | 2.6 | 6.1 | 0.00 | 0.59 | 0.00 | 90 | 1000.5 |
| 20260508065652 | 44 | 0 | 4.3 | 8.7 | 0.00 | 0.59 | 0.00 | 90 | 1000.5 |
| 20260508065153 | 44 | 0 | 3.5 | 8.7 | 0.00 | 0.59 | 0.00 | 90 | 1000.6 |
| 20260508064652 | 44 | 0 | 4.3 | 7.8 | 0.00 | 0.59 | 0.00 | 90 | 1000.7 |
| 20260508064151 | 44 | 0 | 4.3 | 8.7 | 0.00 | 0.61 | 0.00 | 90 | 1000.6 |
| 20260508063652 | 44 | 0 | 5.2 | 8.7 | 0.00 | 0.62 | 0.00 | 90 | 1000.6 |
| 20260508063152 | 44 | 0 | 5.2 | 8.7 | 0.00 | 0.63 | 0.00 | 89 | 1000.6 |
| 20260508062651 | 44 | 0 | 4.3 | 8.7 | 0.00 | 0.64 | 0.00 | 89 | 1000.6 |
| 20260508062245 | 44 | 0 | 4.3 | 10.4 | 0.00 | 0.65 | 0.00 | 89 | 1000.6 |
| 20260508062230 | 44 | 0 | 5.2 | 10.4 | 0.00 | 0.64 | 0.00 | 89 | 1000.6 |
| 20260508061153 | 44 | 0 | 5.2 | 8.7 | 0.00 | 0.67 | 0.00 | 89 | 1000.6 |
| 20260508060650 | 44 | 0 | 5.2 | 8.7 | 0.00 | 0.67 | 0.00 | 89 | 1000.4 |
| 20260508060150 | 44 | 0 | 5.2 | 8.7 | 0.00 | 0.67 | 0.00 | 89 | 1000.5 |
| 20260508055939 | 44 | 0 | 5.2 | 7.8 | 0.00 | 0.68 | 0.00 | 89 | 1000.5 |
| 20260508055149 | 44 | 0 | 4.3 | 7.8 | 0.00 | 0.68 | 0.00 | 89 | 1000.5 |
| 20260508054651 | 45 | 0 | 3.5 | 8.7 | 0.00 | 0.68 | 0.00 | 88 | 1000.6 |
| 20260508054151 | 45 | 0 | 4.3 | 8.7 | 0.00 | 0.68 | 0.00 | 88 | 1000.6 |
| 20260508053650 | 45 | 0 | 4.3 | 9.6 | 0.00 | 0.68 | 0.00 | 88 | 1000.6 |
| 20260508053150 | 45 | 0 | 6.1 | 10.4 | 0.00 | 0.68 | 0.00 | 88 | 1000.4 |
| 20260508052651 | 45 | 0 | 7.0 | 10.4 | 0.00 | 0.68 | 0.00 | 89 | 1000.5 |
| 20260508052150 | 45 | 0 | 5.2 | 8.7 | 0.00 | 0.68 | 0.00 | 89 | 1000.5 |
| 20260508051651 | 45 | 0 | 6.1 | 8.7 | 0.00 | 0.68 | 0.00 | 89 | 1000.9 |
| 20260508051149 | 45 | 0 | 4.3 | 6.1 | 0.00 | 0.68 | 0.00 | 88 | 1001.0 |
| 20260508050648 | 45 | 0 | 3.5 | 4.3 | 0.00 | 0.68 | 0.00 | 88 | 1000.9 |
| 20260508050150 | 45 | 0 | 3.5 | 6.1 | 0.00 | 0.68 | 0.00 | 88 | 1000.9 |
| 20260508045649 | 45 | 0 | 3.5 | 6.1 | 0.00 | 0.68 | 0.00 | 88 | 1000.7 |
| 20260508045149 | 46 | 0 | 4.3 | 7.8 | 0.00 | 0.68 | 0.00 | 88 | 1000.7 |
| 20260508044649 | 46 | 0 | 3.5 | 7.8 | 0.00 | 0.68 | 0.00 | 87 | 1000.7 |
| 20260508044437 | 46 | 0 | 5.2 | 7.8 | 0.00 | 0.68 | 0.00 | 87 | 1000.8 |
| 20260508043936 | 46 | 0 | 5.2 | 8.7 | 0.00 | 0.68 | 0.00 | 87 | 1000.8 |
| 20260508043148 | 46 | 0 | 5.2 | 8.7 | 0.00 | 0.68 | 0.00 | 87 | 1000.9 |
| 20260508042650 | 46 | 0 | 5.2 | 7.8 | 0.00 | 0.68 | 0.00 | 88 | 1000.9 |
| 20260508042149 | 46 | 0 | 5.2 | 6.1 | 0.00 | 0.68 | 0.00 | 88 | 1001.0 |
| 20260508041803 | 47 | 0 | 2.6 | 4.3 | 0.00 | 0.68 | 0.00 | 87 | 1001.4 |
| 20260508041742 | 46 | 0 | 4.3 | 6.1 | 0.00 | 0.68 | 0.00 | 87 | 1001.2 |
| 20260508041211 | 47 | 0 | 3.5 | 4.3 | 0.00 | 0.68 | 0.00 | 88 | 1001.4 |
| 20260508040439 | 47 | 0 | 2.6 | 5.2 | 0.00 | 0.68 | 0.00 | 87 | 1001.5 |
| 20260508035646 | 47 | 0 | 3.5 | 6.1 | 0.00 | 0.68 | 0.00 | 87 | 1001.4 |
| 20260508035145 | 47 | 0 | 3.5 | 6.1 | 0.00 | 0.68 | 0.00 | 88 | 1001.4 |
| 20260508034646 | 47 | 0 | 2.6 | 5.2 | 0.00 | 0.68 | 0.00 | 88 | 1001.5 |
| 20260508034146 | 47 | 0 | 3.5 | 5.2 | 0.00 | 0.68 | 0.00 | 89 | 1001.4 |
| 20260508033645 | 47 | 0 | 3.5 | 5.2 | 0.00 | 0.68 | 0.00 | 89 | 1001.5 |
| 20260508033146 | 47 | 0 | 3.5 | 6.1 | 0.00 | 0.68 | 0.00 | 90 | 1001.5 |
| 20260508032645 | 47 | 0 | 4.3 | 6.1 | 0.00 | 0.68 | 0.00 | 91 | 1001.3 |
| 20260508032146 | 48 | 0 | 3.5 | 5.2 | 0.00 | 0.68 | 0.00 | 91 | 1001.2 |
| 20260508031647 | 48 | 0 | 2.6 | 3.5 | 0.00 | 0.68 | 0.00 | 91 | 1001.0 |
| 20260508031145 | 48 | 0 | 1.7 | 3.5 | 0.00 | 0.68 | 0.00 | 91 | 1001.0 |
| 20260508030645 | 48 | 0 | 1.7 | 3.5 | 0.00 | 0.68 | 0.00 | 90 | 1001.0 |
| 20260508030143 | 48 | 0 | 1.7 | 3.5 | 0.00 | 0.68 | 0.00 | 90 | 1001.2 |
| 20260508025644 | 49 | 0 | 2.6 | 3.5 | 0.00 | 0.68 | 0.68 | 90 | 1001.3 |
| 20260508025144 | 49 | 0 | 0.0 | 0.0 | 0.00 | 0.68 | 0.68 | 89 | 1001.2 |
| 20260508024645 | 49 | 0 | 0.0 | 1.7 | 0.00 | 0.68 | 0.68 | 89 | 1001.4 |
| 20260508024145 | 49 | 0 | 0.0 | 3.5 | 0.00 | 0.68 | 0.68 | 88 | 1001.4 |
| 20260508023927 | 49 | 0 | 0.9 | 3.5 | 0.00 | 0.68 | 0.68 | 88 | 1001.3 |
| 20260508023433 | 49 | 0 | 2.6 | 3.5 | 0.00 | 0.68 | 0.68 | 88 | 1001.4 |
| 20260508022643 | 50 | 0 | 2.6 | 4.3 | 0.00 | 0.68 | 0.68 | 87 | 1001.4 |
| 20260508022143 | 50 | 0 | 3.5 | 5.2 | 0.00 | 0.68 | 0.68 | 87 | 1001.5 |
| 20260508021643 | 50 | 0 | 2.6 | 5.2 | 0.00 | 0.68 | 0.68 | 87 | 1001.4 |
| 20260508021428 | 50 | 0 | 3.5 | 5.2 | 0.00 | 0.68 | 0.68 | 87 | 1001.4 |
| 20260508020643 | 50 | 0 | 3.5 | 6.1 | 0.00 | 0.68 | 0.68 | 87 | 1001.6 |
| 20260508020143 | 50 | 0 | 3.5 | 7.8 | 0.00 | 0.68 | 0.68 | 87 | 1001.5 |
| 20260508015644 | 51 | 0 | 4.3 | 7.8 | 0.00 | 0.68 | 0.68 | 87 | 1001.7 |
| 20260508015143 | 51 | 0 | 4.3 | 7.8 | 0.00 | 0.68 | 0.68 | 87 | 1001.6 |
| 20260508014644 | 51 | 0 | 4.3 | 8.7 | 0.00 | 0.68 | 0.68 | 88 | 1001.6 |
| 20260508014141 | 51 | 0 | 5.2 | 8.7 | 0.00 | 0.68 | 0.68 | 88 | 1001.8 |
| 20260508013643 | 50 | 0 | 4.3 | 7.8 | 0.00 | 0.68 | 0.68 | 89 | 1001.7 |
| 20260508013142 | 50 | 0 | 5.2 | 7.8 | 0.00 | 0.68 | 0.68 | 90 | 1001.6 |
| 20260508012641 | 50 | 0 | 5.2 | 7.8 | 0.00 | 0.68 | 0.68 | 91 | 1001.6 |
| 20260508012142 | 50 | 0 | 4.3 | 6.1 | 0.00 | 0.68 | 0.68 | 92 | 1001.7 |
| 20260508011643 | 50 | 0 | 1.7 | 2.6 | 0.00 | 0.68 | 0.68 | 91 | 1001.7 |
| 20260508011141 | 50 | 0 | 0.0 | 0.0 | 0.00 | 0.68 | 0.68 | 92 | 1001.5 |
| 20260508010642 | 50 | 0 | 0.0 | 0.0 | 0.00 | 0.68 | 0.68 | 91 | 1001.6 |
| 20260508010141 | 51 | 0 | 0.0 | 0.0 | 0.00 | 0.68 | 0.68 | 91 | 1001.3 |
| 20260508005642 | 51 | 0 | 0.0 | 0.0 | 0.00 | 0.68 | 0.68 | 91 | 1001.2 |
| 20260508005142 | 51 | 0 | 0.0 | 0.0 | 0.00 | 0.68 | 0.68 | 91 | 1001.3 |
| 20260508004642 | 52 | 0 | 0.0 | 0.0 | 0.00 | 0.68 | 0.68 | 90 | 1001.2 |
| 20260508004141 | 52 | 0 | 0.0 | 0.0 | 0.00 | 0.68 | 0.68 | 90 | 1001.1 |
| 20260508003645 | 52 | 0 | 0.0 | 0.0 | 0.00 | 0.68 | 0.68 | 90 | 1001.2 |
| 20260508003140 | 52 | 0 | 0.0 | 0.0 | 0.00 | 0.68 | 0.68 | 89 | 1001.0 |
| 20260508002640 | 52 | 0 | 0.0 | 0.0 | 0.00 | 0.68 | 0.68 | 89 | 1000.8 |
| 20260508002141 | 53 | 0 | 0.0 | 0.0 | 0.00 | 0.68 | 0.68 | 89 | 1000.8 |
| 20260508001640 | 53 | 0 | 0.0 | 0.0 | 0.00 | 0.68 | 0.68 | 89 | 1000.8 |
| 20260508001142 | 53 | 0 | 0.0 | 0.0 | 0.00 | 0.68 | 0.68 | 89 | 1000.7 |
| 20260508000641 | 53 | 0 | 0.0 | 0.0 | 0.00 | 0.68 | 0.68 | 88 | 1000.6 |
| 20260508000140 | 54 | 0 | 0.0 | 0.0 | 0.00 | 0.68 | 0.68 | 88 | 1000.7 |
| 20260507235640 | 54 | 0 | 0.0 | 0.0 | 0.00 | 0.68 | 0.68 | 87 | 1000.4 |
| 20260507235140 | 54 | 0 | 0.0 | 0.0 | 0.00 | 0.68 | 0.68 | 89 | 1000.4 |
| 20260507234639 | 55 | 0 | 0.0 | 0.0 | 0.00 | 0.68 | 0.68 | 86 | 1000.3 |
| 20260507234139 | 55 | 0 | 0.0 | 0.0 | 0.00 | 0.68 | 0.68 | 85 | 1000.0 |
| 20260507233639 | 55 | 0 | 0.0 | 0.0 | 0.00 | 0.68 | 0.68 | 84 | 1000.0 |
| 20260507233139 | 56 | 0 | 0.0 | 3.5 | 0.00 | 0.68 | 0.68 | 85 | 1000.1 |
| 20260507232639 | 56 | 0 | 1.7 | 3.5 | 0.00 | 0.68 | 0.68 | 84 | 1000.2 |
| 20260507232139 | 56 | 0 | 0.0 | 0.0 | 0.00 | 0.68 | 0.68 | 83 | 1000.2 |
| 20260507231638 | 56 | 0 | 0.0 | 0.0 | 0.00 | 0.68 | 0.68 | 81 | 1000.2 |
| 20260507231140 | 57 | 0 | 0.0 | 0.0 | 0.00 | 0.68 | 0.68 | 80 | 1000.1 |
| 20260507230638 | 57 | 0 | 0.0 | 0.0 | 0.00 | 0.68 | 0.68 | 79 | 1000.1 |
| 20260507230138 | 57 | 0 | 0.0 | 4.3 | 0.00 | 0.68 | 0.68 | 78 | 1000.0 |
| 20260507225638 | 57 | 0 | 0.0 | 6.1 | 0.00 | 0.68 | 0.68 | 78 | 1000.0 |
| 20260507225138 | 57 | 0 | 2.6 | 7.8 | 0.00 | 0.68 | 0.68 | 77 | 1000.0 |
| 20260507224639 | 57 | 0 | 4.3 | 8.7 | 0.00 | 0.68 | 0.68 | 76 | 999.9 |
| 20260507224139 | 58 | 0 | 5.2 | 10.4 | 0.00 | 0.68 | 0.68 | 75 | 999.9 |
| 20260507223639 | 58 | 0 | 5.2 | 10.4 | 0.00 | 0.68 | 0.68 | 74 | 999.9 |
| 20260507223138 | 58 | 0 | 4.3 | 10.4 | 0.00 | 0.68 | 0.68 | 75 | 999.9 |
| 20260507222637 | 58 | 0 | 6.1 | 10.4 | 0.00 | 0.68 | 0.68 | 75 | 999.9 |
| 20260507222138 | 59 | 0 | 6.1 | 10.4 | 0.00 | 0.68 | 0.68 | 75 | 999.9 |
| 20260507221922 | 59 | 0 | 5.2 | 10.4 | 0.00 | 0.68 | 0.68 | 75 | 999.9 |
| 20260507221137 | 59 | 0 | 3.5 | 11.3 | 0.00 | 0.68 | 0.68 | 76 | 999.6 |
| 20260507220637 | 59 | 0 | 7.8 | 13.0 | 0.00 | 0.68 | 0.68 | 75 | 999.6 |
| 20260507220136 | 59 | 0 | 8.7 | 13.0 | 0.00 | 0.68 | 0.68 | 75 | 999.8 |
| 20260507215639 | 60 | 0 | 6.1 | 13.0 | 0.00 | 0.68 | 0.68 | 76 | 999.8 |
| 20260507215136 | 60 | 0 | 7.8 | 13.9 | 0.00 | 0.68 | 0.68 | 74 | 999.8 |
| 20260507214920 | 60 | 0 | 9.6 | 13.9 | 0.00 | 0.68 | 0.68 | 75 | 999.7 |
| 20260507214134 | 60 | 0 | 5.2 | 10.4 | 0.00 | 0.68 | 0.68 | 79 | 999.8 |
| 20260507213633 | 60 | 0 | 7.0 | 13.0 | 0.00 | 0.68 | 0.68 | 78 | 999.9 |
| 20260507213115 | 60 | 0 | 7.8 | 13.9 | 0.00 | 0.68 | 0.68 | 79 | 999.9 |
| 20260507212614 | 60 | 0 | 7.8 | 12.2 | 0.00 | 0.68 | 0.68 | 81 | 1000.0 |
| 20260507212116 | 60 | 0 | 6.1 | 10.4 | 0.00 | 0.68 | 0.68 | 83 | 999.9 |
| 20260507211612 | 59 | 0 | 4.3 | 6.1 | 0.00 | 0.68 | 0.68 | 84 | 999.8 |
| 20260507211114 | 59 | 0 | 4.3 | 8.7 | 0.00 | 0.68 | 0.68 | 84 | 999.7 |
| 20260507210611 | 59 | 0 | 5.2 | 8.7 | 0.00 | 0.68 | 0.68 | 84 | 999.7 |
| 20260507210112 | 60 | 0 | 5.2 | 8.7 | 0.00 | 0.68 | 0.68 | 88 | 999.6 |
| 20260507205612 | 60 | 0 | 0.9 | 5.2 | 0.00 | 0.68 | 0.68 | 91 | 999.5 |
| 20260507205112 | 59 | 0 | 2.6 | 5.2 | 0.00 | 0.68 | 0.68 | 92 | 999.4 |
| 20260507204609 | 59 | 0 | 1.7 | 6.1 | 0.00 | 0.68 | 0.68 | 94 | 999.6 |
| 20260507204110 | 58 | 0 | 0.9 | 7.8 | 0.00 | 0.68 | 0.68 | 95 | 999.6 |
| 20260507203607 | 57 | 0 | 3.5 | 7.8 | 0.00 | 0.68 | 0.68 | 95 | 999.5 |
| 20260507203108 | 57 | 0 | 0.0 | 8.7 | 0.00 | 0.68 | 0.68 | 95 | 999.6 |
| 20260507202608 | 57 | 0 | 3.5 | 8.7 | 0.00 | 0.68 | 0.68 | 96 | 999.7 |
| 20260507202105 | 56 | 0 | 0.0 | 4.3 | 0.00 | 0.68 | 0.68 | 96 | 999.7 |
| 20260507201605 | 56 | 0 | 0.0 | 3.5 | 0.00 | 0.68 | 0.68 | 96 | 999.8 |
| 20260507201105 | 55 | 0 | 0.9 | 3.5 | 0.00 | 0.68 | 0.68 | 96 | 999.8 |
| 20260507200605 | 55 | 0 | 0.0 | 3.5 | 0.00 | 0.68 | 0.68 | 96 | 1000.0 |
| 20260507200105 | 55 | 0 | 0.0 | 3.5 | 0.00 | 0.68 | 0.68 | 96 | 999.9 |
| 20260507195603 | 55 | 0 | 0.0 | 3.5 | 0.00 | 0.68 | 0.68 | 96 | 999.9 |
| 20260507195224 | 56 | 0 | 0.0 | 3.5 | 0.00 | 0.68 | 0.68 | 96 | 999.9 |
| 20260507195203 | 55 | 0 | 0.9 | 3.5 | 0.00 | 0.68 | 0.68 | 96 | 999.9 |
| 20260507194629 | 55 | 0 | 0.9 | 3.5 | 0.00 | 0.68 | 0.68 | 96 | 999.9 |
| 20260507193602 | 56 | 0 | 0.0 | 4.3 | 0.00 | 0.68 | 0.68 | 96 | 999.9 |
| 20260507193342 | 56 | 0 | 0.0 | 3.5 | 0.00 | 0.68 | 0.68 | 96 | 999.9 |
| 20260507193337 | 56 | 0 | 0.0 | 4.3 | 0.01 | 0.68 | 0.68 | 96 | 999.9 |
| 20260507193258 | 56 | 0 | 0.0 | 4.3 | 0.00 | 0.68 | 0.68 | 96 | 999.7 |
| 20260507192724 | 56 | 0 | 0.0 | 3.5 | 0.00 | 0.68 | 0.68 | 96 | 999.7 |
| 20260507191628 | 56 | 0 | 0.0 | 1.7 | 0.00 | 0.68 | 0.68 | 96 | 1000.0 |
| 20260507190845 | 56 | 0 | 0.9 | 4.3 | 0.01 | 0.68 | 0.68 | 96 | 1000.0 |
| 20260507185602 | 56 | 0 | 0.0 | 3.5 | 0.01 | 0.68 | 0.68 | 96 | 1000.0 |
| 20260507185102 | 56 | 0 | 0.0 | 3.5 | 0.01 | 0.68 | 0.68 | 96 | 1000.1 |
| 20260507184559 | 56 | 0 | 0.9 | 3.5 | 0.01 | 0.68 | 0.68 | 96 | 1000.2 |
| 20260507184058 | 55 | 0 | 0.0 | 0.0 | 0.01 | 0.68 | 0.68 | 96 | 1000.1 |
| 20260507183550 | 55 | 0 | 0.0 | 0.0 | 0.01 | 0.68 | 0.68 | 96 | 1000.1 |
| 20260507183052 | 54 | 0 | 0.0 | 3.5 | 0.01 | 0.68 | 0.68 | 96 | 1000.2 |
| 20260507182551 | 54 | 0 | 0.0 | 3.5 | 0.01 | 0.68 | 0.68 | 96 | 1000.1 |
| 20260507182049 | 54 | 0 | 0.0 | 1.7 | 0.01 | 0.68 | 0.68 | 96 | 1000.1 |
| 20260507181834 | 54 | 0 | 0.0 | 2.6 | 0.01 | 0.68 | 0.68 | 96 | 1000.3 |
| 20260507181050 | 53 | 0 | 0.0 | 2.6 | 0.00 | 0.67 | 0.67 | 96 | 1000.4 |
| 20260507180547 | 53 | 0 | 0.0 | 4.3 | 0.00 | 0.67 | 0.67 | 96 | 1000.4 |
| 20260507180055 | 52 | 0 | 1.7 | 5.2 | 0.00 | 0.67 | 0.67 | 96 | 1000.6 |
| 20260507175549 | 52 | 0 | 1.7 | 5.2 | 0.00 | 0.67 | 0.67 | 96 | 1000.7 |
| 20260507175044 | 52 | 0 | 1.7 | 8.7 | 0.01 | 0.67 | 0.67 | 96 | 1000.9 |
| 20260507174544 | 51 | 0 | 2.6 | 8.7 | 0.02 | 0.67 | 0.67 | 96 | 1000.8 |
| 20260507174045 | 51 | 0 | 2.6 | 7.8 | 0.02 | 0.67 | 0.67 | 96 | 1000.7 |
| 20260507173828 | 51 | 0 | 0.0 | 5.2 | 0.02 | 0.67 | 0.67 | 96 | 1000.3 |
| 20260507173323 | 51 | 0 | 0.0 | 9.6 | 0.02 | 0.67 | 0.67 | 96 | 1000.4 |
| 20260507172538 | 51 | 0 | 2.6 | 9.6 | 0.02 | 0.67 | 0.67 | 96 | 1000.9 |
| 20260507172039 | 51 | 0 | 3.5 | 9.6 | 0.02 | 0.67 | 0.67 | 96 | 1000.4 |
| 20260507171537 | 51 | 0 | 1.7 | 3.5 | 0.04 | 0.67 | 0.67 | 96 | 1000.2 |
| 20260507171320 | 51 | 0 | 0.0 | 3.5 | 0.05 | 0.67 | 0.67 | 96 | 999.9 |
| 20260507170822 | 51 | 0 | 0.0 | 3.5 | 0.06 | 0.67 | 0.67 | 96 | 999.8 |
| 20260507170048 | 51 | 0 | 0.0 | 3.5 | 0.08 | 0.67 | 0.67 | 96 | 1000.3 |
| 20260507165537 | 51 | 0 | 0.0 | 3.5 | 0.08 | 0.67 | 0.67 | 96 | 1000.9 |
| 20260507165033 | 51 | 0 | 0.0 | 3.5 | 0.07 | 0.66 | 0.66 | 96 | 1001.0 |
| 20260507164814 | 51 | 0 | 0.0 | 3.5 | 0.06 | 0.65 | 0.65 | 96 | 1000.8 |
| 20260507164038 | 51 | 0 | 0.9 | 2.6 | 0.07 | 0.65 | 0.65 | 96 | 1000.9 |
| 20260507163532 | 50 | 0 | 0.0 | 2.6 | 0.06 | 0.65 | 0.65 | 96 | 1000.8 |
| 20260507163034 | 50 | 0 | 0.0 | 0.0 | 0.06 | 0.65 | 0.65 | 96 | 1000.8 |
| 20260507162533 | 50 | 0 | 0.0 | 0.0 | 0.07 | 0.65 | 0.65 | 96 | 1000.5 |
| 20260507162035 | 50 | 0 | 0.0 | 0.0 | 0.07 | 0.64 | 0.65 | 96 | 1000.5 |
| 20260507161531 | 50 | 0 | 0.0 | 0.0 | 0.06 | 0.63 | 0.63 | 96 | 1000.6 |
| 20260507161033 | 50 | 0 | 0.0 | 5.2 | 0.07 | 0.62 | 0.62 | 96 | 1001.2 |
| 20260507160531 | 50 | 0 | 0.0 | 5.2 | 0.06 | 0.61 | 0.61 | 96 | 1001.7 |
| 20260507160052 | 50 | 0 | 0.0 | 2.6 | 0.06 | 0.59 | 0.59 | 96 | 1002.0 |
| 20260507155531 | 50 | 0 | 0.0 | 0.9 | 0.08 | 0.59 | 0.59 | 96 | 1001.6 |
| 20260507155031 | 50 | 0 | 0.0 | 4.3 | 0.09 | 0.59 | 0.59 | 96 | 1001.4 |
| 20260507154531 | 49 | 0 | 0.9 | 5.2 | 0.11 | 0.59 | 0.59 | 96 | 1001.3 |
| 20260507154035 | 49 | 0 | 1.7 | 5.2 | 0.14 | 0.58 | 0.58 | 96 | 1001.5 |
| 20260507153531 | 49 | 0 | 0.9 | 5.2 | 0.19 | 0.58 | 0.58 | 96 | 1001.6 |
| 20260507153033 | 49 | 0 | 0.0 | 5.2 | 0.21 | 0.58 | 0.58 | 96 | 1001.7 |
| 20260507152529 | 49 | 0 | 0.0 | 2.6 | 0.22 | 0.57 | 0.57 | 96 | 1001.6 |
| 20260507152032 | 49 | 0 | 0.9 | 4.3 | 0.23 | 0.57 | 0.57 | 96 | 1001.4 |
| 20260507151531 | 49 | 0 | 0.9 | 4.3 | 0.24 | 0.57 | 0.57 | 96 | 1001.9 |
| 20260507151037 | 50 | 0 | 0.0 | 4.3 | 0.24 | 0.55 | 0.55 | 96 | 1002.1 |
| 20260507150528 | 50 | 0 | 0.9 | 4.3 | 0.25 | 0.54 | 0.54 | 96 | 1002.2 |
| 20260507150048 | 50 | 0 | 0.9 | 2.6 | 0.24 | 0.53 | 0.53 | 96 | 1002.2 |
| 20260507145528 | 51 | 0 | 0.0 | 2.6 | 0.23 | 0.51 | 0.51 | 96 | 1002.0 |
| 20260507145032 | 51 | 0 | 0.9 | 2.6 | 0.22 | 0.50 | 0.50 | 96 | 1002.2 |
| 20260507144526 | 51 | 0 | 0.0 | 0.9 | 0.20 | 0.48 | 0.48 | 96 | 1002.6 |
| 20260507144028 | 51 | 0 | 0.0 | 0.0 | 0.17 | 0.43 | 0.44 | 96 | 1002.4 |
| 20260507143526 | 51 | 0 | 0.0 | 0.0 | 0.12 | 0.39 | 0.39 | 96 | 1002.1 |
| 20260507143033 | 51 | 0 | 0.0 | 0.0 | 0.09 | 0.37 | 0.37 | 96 | 1002.4 |
| 20260507142526 | 51 | 0 | 0.0 | 0.0 | 0.08 | 0.35 | 0.35 | 96 | 1002.6 |
| 20260507142029 | 51 | 0 | 0.0 | 4.3 | 0.07 | 0.34 | 0.35 | 96 | 1002.5 |
| 20260507141525 | 51 | 0 | 1.7 | 4.3 | 0.06 | 0.33 | 0.33 | 96 | 1003.2 |
| 20260507141028 | 51 | 0 | 0.0 | 2.6 | 0.03 | 0.30 | 0.31 | 96 | 1003.2 |
| 20260507140525 | 51 | 0 | 0.0 | 2.6 | 0.02 | 0.29 | 0.29 | 96 | 1002.6 |
| 20260507140029 | 51 | 0 | 0.0 | 3.5 | 0.01 | 0.28 | 0.28 | 96 | 1002.2 |
| 20260507135525 | 51 | 0 | 0.0 | 5.2 | 0.01 | 0.28 | 0.28 | 96 | 1002.5 |
| 20260507135032 | 51 | 0 | 0.9 | 5.2 | 0.00 | 0.28 | 0.28 | 96 | 1002.7 |
| 20260507134524 | 51 | 0 | 0.9 | 4.3 | 0.00 | 0.28 | 0.28 | 96 | 1002.9 |
| 20260507134030 | 51 | 0 | 1.7 | 5.2 | 0.00 | 0.28 | 0.28 | 96 | 1003.0 |
| 20260507133524 | 51 | 0 | 0.0 | 6.1 | 0.00 | 0.28 | 0.28 | 96 | 1002.9 |
| 20260507133034 | 51 | 0 | 0.9 | 6.1 | 0.00 | 0.28 | 0.28 | 96 | 1002.9 |